This demonstration page uses our WeatherBlox Daily Observations layout. Learn more.

Left ArrowRight Arrow

44.89941, -97.11507

Hourly Observations for July 29, 2016

Temp ( °F °C ) Dew Point ( °F °C ) Humidity (%) Winds ( mph kmh ) Pressure ( in mb ) Visibility ( mi km ) Precip ( " mm )
12:53 am 00:53 Cloudy with Light Rain 65 18.3 59 15 81 81 Calm 30.08 1019 10 16 0.00 0.03
1:53 am 01:53 Cloudy 66 18.9 58 14.4 75 75 Calm 30.09 1019 10 16 0.00 0.03
2:53 am 02:53 Cloudy 67 19.4 57 13.9 71 71 Calm 30.07 1018 10 16 0.00 0.00
3:53 am 03:53 Mostly Cloudy 63 17.2 59 15 87 87 N 3 6 30.06 1018 10 16 0.00 0.00
4:53 am 04:53 Clear 61 16.1 57 13.9 87 87 N 3 6 30.06 1018 10 16 0.00 0.00
5:53 am 05:53 Clear 60 15.6 57 13.9 90 90 N 3 6 30.07 1018 10 16 0.00 0.00
6:53 am 06:53 Sunny 62 16.7 57 13.9 84 84 Calm 30.07 1018 10 16 0.00 0.00
7:53 am 07:53 Sunny 65 18.3 57 13.9 76 76 Calm 30.08 1019 10 16 0.00 0.00
8:53 am 08:53 Partly Cloudy 70 21.1 56 13.3 61 61 E 5 7 30.07 1018 10 16 0.00 0.00
9:53 am 09:53 Sunny 74 23.3 56 13.3 54 54 ESE 6 9 30.08 1019 10 16 0.00 0.00
10:53 am 10:53 Cloudy 74 23.3 55 12.8 52 52 ESE 5 7 30.09 1019 10 16 0.00 0.00
11:53 am 11:53 Cloudy 75 23.9 55 12.8 50 50 VRB 5 7 30.09 1019 10 16 0.00 0.00
12:53 pm 12:53 Sunny 77 25 55 12.8 47 47 undefined N/A 30.08 1019 10 16 0.00 0.00
1:53 pm 13:53 Cloudy 77 25 55 12.8 47 47 S 7 11 30.06 1018 10 16 0.00 0.00
2:53 pm 14:53 Mostly Cloudy 78 25.6 55 12.8 45 45 S 9 15 30.05 1018 10 16 0.00 0.00
3:53 pm 15:53 Mostly Cloudy 77 25 54 12.2 45 45 SSE 5 7 30.04 1017 10 16 0.00 0.00
4:53 pm 16:53 Mostly Cloudy 78 25.6 55 12.8 45 45 SSW 8 13 30.03 1017 10 16 0.00 0.00
5:53 pm 17:53 Partly Cloudy 78 25.6 55 12.8 45 45 S 8 13 30.02 1017 10 16 0.00 0.00
6:53 pm 18:53 Mostly Sunny 77 25 55 12.8 47 47 S 8 13 30.01 1016 10 16 0.00 0.00
7:53 pm 19:53 Sunny 75 23.9 56 13.3 52 52 S 7 11 30.00 1016 10 16 0.00 0.00
8:53 pm 20:53 Sunny 71 21.7 57 13.9 61 61 S 6 9 30.01 1016 10 16 0.00 0.00
9:53 pm 21:53 Clear 70 21.1 57 13.9 64 64 SE 6 9 30.02 1017 10 16 0.00 0.00
10:53 pm 22:53 Clear 68 20 57 13.9 68 68 SE 8 13 30.02 1017 10 16 0.00 0.00
11:53 pm 23:53 Clear 64 17.8 56 13.3 75 75 SSE 7 11 30.03 1017 10 16 0.00 0.00

Powered by AerisWeather